This is the latest recevied weather packets stored in our database for station/object VA3BOO. If no packets are shown the sender has not sent any weather packets the latest 10 day(s).
| Time | Temp. | Humidity | Pressure | Rain* | Wind** | Luminosity | Snow |
|---|---|---|---|---|---|---|---|
| 1777965304 | 11.67° C | 85% | 1001.1 hPa | 0 mm | - | 0 W/m² | - |
| 1777965004 | 11.67° C | 85% | 1000.9 hPa | 0 mm | - | 0 W/m² | - |
| 1777964704 | 11.67° C | 85% | 1000.9 hPa | 0 mm | - | 0 W/m² | - |
| 1777964404 | 11.67° C | 85% | 1000.9 hPa | 0 mm | - | 0 W/m² | - |
| 1777964104 | 12.22° C | 85% | 1000.9 hPa | 0 mm | - | 0 W/m² | - |
| 1777963804 | 12.22° C | 83% | 1001 hPa | 0 mm | - | 0 W/m² | - |
| 1777963504 | 12.78° C | 79% | 1001.1 hPa | 0 mm | - | 0 W/m² | - |
| 1777963204 | 13.33° C | 76% | 1000.7 hPa | 0 mm | - | 0 W/m² | - |
| 1777962904 | 12.78° C | 72% | 1001.3 hPa | 0 mm | - | 0 W/m² | - |
| 1777962604 | 12.78° C | 68% | 1001.2 hPa | 0 mm | - | 0 W/m² | - |
| 1777962304 | 12.78° C | 67% | 1001 hPa | 0 mm | - | 0 W/m² | - |
| 1777962004 | 12.78° C | 67% | 1001.1 hPa | 0 mm | - | 0 W/m² | - |
| 1777961704 | 12.78° C | 66% | 1000.7 hPa | 0 mm | - | 0 W/m² | - |
| 1777961404 | 12.78° C | 66% | 1000.8 hPa | 0 mm | - | 0 W/m² | - |
| 1777961104 | 12.78° C | 65% | 1000.8 hPa | 0 mm | - | 0 W/m² | - |
| 1777960804 | 12.78° C | 66% | 1000.9 hPa | 0 mm | - | 0 W/m² | - |
| 1777960504 | 12.78° C | 65% | 1000.9 hPa | 0 mm | - | 0 W/m² | - |
| 1777960204 | 12.22° C | 66% | 1000.9 hPa | 0 mm | - | 0 W/m² | - |
| 1777959904 | 12.22° C | 66% | 1000.9 hPa | 0 mm | - | 0 W/m² | - |
| 1777959604 | 11.67° C | 67% | 1001.1 hPa | 0 mm | - | 0 W/m² | - |
| 1777959304 | 11.67° C | 68% | 1001 hPa | 0 mm | - | 0 W/m² | - |
| 1777959004 | 11.67° C | 68% | 1001 hPa | 0 mm | - | 0 W/m² | - |
| 1777958704 | 11.67° C | 69% | 1001 hPa | 0 mm | - | 0 W/m² | - |
| 1777958404 | 11.67° C | 68% | 1000.9 hPa | 0 mm | - | 0 W/m² | - |
| 1777958104 | 11.11° C | 68% | 1001 hPa | 0 mm | - | 0 W/m² | - |
* Rain latest hour (hover to see other rain measurements)
** Current wind speed in m/s (hover to see current wind gust speed)